JUGNU
1 37839U 11058B 14077.32269730 .00000541 00000-0 14755-3 0 5829
2 37839 019.9620 085.6235 0019220 063.2164 054.2086 14.12269432125696
SRMSAT
1 37841U 11058D 14078.39859561 .00000517 00000-0 14071-3 0 5854
2 37841 019.9723 096.6251 0012052 018.7642 114.4435 14.10318862125669
RAX-2
1 37853U 11061D 14077.49604082 .00014879 00000-0 10365-2 0 7520
2 37853 101.7162 063.9866 0221010 318.9947 154.4953 14.87943141129163
AUBIESAT
1 37854U 11061E 14078.56786513 .00016042 00000-0 10853-2 0 7368
2 37854 101.7206 067.1226 0219077 313.5445 162.4539 14.89180198129361
HRBE
1 37855U 11061F 14078.58458524 .00015117 00000-0 10342-2 0 7454
2 37855 101.7211 066.6418 0220888 314.4955 161.7433 14.88569648129346
RS-39
1 38051U 11062C 14079.24847345 .00063877 00000-0 11824-2 0 3741
2 38051 051.6305 306.8343 0010142 196.8657 270.1587 15.48357950120275
E-STAR
1 38079U 12006C 14079.21894723 .00156573 73645-5 23233-2 0 7858
2 38079 069.4582 222.8477 0446784 122.7711 241.7411 14.87868433110126
GOLIAT
1 38085U 12006J 14079.44993017 .00142637 65527-5 21612-2 0 8997
2 38085 069.4592 227.5309 0465679 125.1999 306.9912 14.83528616110020
HORYU-2
1 38340U 12025D 14078.85890391 .00002986 00000-0 48257-3 0 7971
2 38340 098.2540 034.6223 0013602 097.5938 262.6849 14.72067296 98650
RS-40
1 38735U 12041C 14079.23180290 .00000024 00000-0 10000-3 0 5198
2 38735 082.4813 343.0134 0017785 087.1616 273.1502 12.42557493 74530
PROITERES
1 38756U 12047B 14079.18195009 .00001398 00000-0 21682-3 0 6739
2 38756 098.2282 166.0215 0011614 311.8957 048.1246 14.74755587 82064
BEESAT-3
1 39134U 13015E 14078.39402034 .00011196 00000-0 81985-3 0 5296
2 39134 064.8745 062.4989 0020005 324.9205 035.0605 15.03759262 50156
BEESAT-2
1 39136U 13015G 14079.22411173 .00009887 00000-0 73332-3 0 5195
2 39136 064.8728 060.1141 0019972 324.1151 035.8629 15.03357825 50273
LO-75
1 39382U 13064C 14079.49455652 .00082465 00000-0 26047-2 0 1572
2 39382 040.4948 264.8740 0013056 331.1720 028.8873 15.31893680 18390
ZACUBE-1
1 39417U 13066B 14079.00710074 .00002843 00000-0 39133-3 0 2497
2 39417 097.7840 152.6822 0063015 171.6257 188.6000 14.77672428 17527
TRITON-1
1 39427U 13066M 14079.20743573 .00002747 00000-0 46970-3 0 1017
2 39427 097.7704 150.4927 0119316 173.0252 187.2641 14.65022844 17362
DELFIN3XT
1 39428U 13066N 14079.13515939 .00004362 00000-0 76591-3 0 1054
2 39428 097.7685 149.9652 0130649 174.2090 186.0657 14.62701049 17311
GOMX-1
1 39430U 13066Q 14079.14880921 .00002640 00000-0 51079-3 0 3215
2 39430 097.7662 148.8602 0157524 176.9392 183.2816 14.56465084 17255
MO-76
1 39436U 13066W 14079.53021053 .00022746 00000-0 25111-2 0 1367
2 39436 097.7858 154.6454 0029599 180.9871 179.1795 14.87174321 17687
LO-74
1 39440U 13066AA 14079.27422343 .00002922 00000-0 44077-3 0 995
2 39440 097.7775 151.9943 0085093 170.5502 189.7318 14.72647148 17493
PUCPSAT-1
1 39442U 13066AC 14079.20725040 .00004444 00000-0 51590-3 0 966
2 39442 097.7879 154.3099 0035078 175.9793 184.1592 14.85446544 16413
LITSAT-1
1 39568U 98067EM 14079.42599258 .00156327 00000-0 20585-2 0 274
2 39568 051.6495 179.0109 0008449 343.9826 062.8096 15.57366566 3116
LITUANSAT
1 39569U 98067EN 14079.49510025 .00107661 00000-0 15528-2 0 679
2 39569 051.6460 178.8277 0007174 334.0342 026.0803 15.55307776 3125
SHINAISAT
1 39572U 14009A 14079.14845785 .00049372 00000-0 59126-3 0 355
2 39572 065.0152 350.1913 0011991 280.7395 079.2430 15.60587113 3177
OPUSAT
1 39575U 14009D 14079.51591816 .00062602 00000-0 70737-3 0 433
2 39575 065.0161 348.8051 0007065 297.7499 062.3453 15.62102079 3249
TEIKYOSAT
1 39576U 14009E 14079.87800545 .00328985 00000-0 30548-2 0 350
2 39576 065.0089 347.3612 0008720 256.8390 103.2304 15.67042525 3289
IFT-1
1 39577U 14009F 14078.86233857 .00078527 00000-0 83895-3 0 353
2 39577 065.0141 350.9360 0004629 305.1464 054.9270 15.63458735 3131
INVADER
1 39578U 14009G 14078.90812102 .00163566 00000-0 15365-2 0 315
2 39578 065.0109 350.6250 0003728 301.8132 058.2664 15.66395038 3149
STARS-II
1 39579U 14009H 14079.23975825 .00236384 00000-0 21726-2 0 334
2 39579 065.0109 349.5726 0007383 254.7080 105.3487 15.66680730 3192
